Simultaneous Nadir Overpasses (SNOs) Predictions

Prediction of SNOs between METOP-C and LANDSAT-8 Satellite Orbit:

Table of predicted SNOs for the next 14.0 days since TLE Epoch: 10/12/2024
Index Date (METOP-C) Time (METOP-C) Lat,Lon (METOP-C) SZA (METOP-C ) Date (LANDSAT-8) Time (LANDSAT-8) Lat,Lon (LANDSAT-8) SZA (LANDSAT-8 ) Distance(km) Time Diff (sec)
1 10/13/2024 00:36:29 -81.08, 29.83 88.77 10/13/2024 00:37:23 -81.08, 29.94 88.74 2.02 54
2 10/13/2024 01:27:08 81.11,-162.14 91.34 10/13/2024 01:26:48 81.11,-161.97 91.35 2.93 20
3 10/15/2024 20:10:53 -81.09, 96.54 87.68 10/15/2024 20:11:39 -81.09, 96.55 87.66 0.24 46
4 10/15/2024 21:01:32 81.12, -95.48 92.42 10/15/2024 21:01:04 81.12, -95.40 92.42 1.32 28
5 10/18/2024 15:45:16 -81.09, 162.89 86.65 10/18/2024 15:45:52 -81.09, 162.98 86.63 1.55 36
6 10/18/2024 16:35:55 81.11, -29.19 93.44 10/18/2024 16:35:17 81.11, -29.01 93.45 2.99 38
7 10/21/2024 11:19:38 -81.10,-130.38 85.60 10/21/2024 11:20:03 -81.10,-130.40 85.59 0.51 25
8 10/21/2024 12:10:17 81.12, 37.50 94.49 10/21/2024 12:09:28 81.12, 37.57 94.48 1.26 49
9 10/24/2024 06:54:00 -81.10, -64.01 84.61 10/24/2024 06:54:12 -81.10, -63.96 84.60 0.77 12



Historial Predications of SNOs between METOP-C and LANDSAT-8
